Flag for Canada Weather past 2 weeks in Regina, Saskatchewan, Canada

Now
50 °F

Clear.


Feels Like: 47 °F
Forecast: 47 / 68 °F
Wind: 7 mph from East

Location: Regina Weather Station

Current Time: Sep 2, 2014 at 4:13:45 AM

Latest Report: Sep 2, 2014 at 3:00 AM


Visibility: 15 mi

Pressure: 29.73 "Hg

Humidity: 82%

Dew point: 45 °F

Location of ReginaLocation

Historic Weather in Regina — Graph

°F

Regina temperature yesterday

Maximum temperature yesterday: 68 °F (at 2:00 PM)
Minimum temperature yesterday: 45 °F (at 6:00 AM)
Average temperature yesterday: 57 °F

Past Weeks' High & Low Weather Summary

 TemperatureHumidityPressure
High86 °F (Aug 19, 3:00 PM)100% (Aug 18, 4:00 AM)30.25 "Hg (Aug 18, 4:00 AM)
Low41 °F (Aug 26, 4:00 AM)39% (Aug 27, 1:00 PM)29.58 "Hg (Aug 20, 4:00 AM)
Average60 °F78%29.91 "Hg
* Reported Aug 18 3:00 AM — Sep 2 3:00 AM, Regina, Weather by CustomWeather, © 2014

Note: Actual official high and low records may vary slightly from our data, if they occured in-between our weather recording intervals... More about our weather records

Advertising

Regina weather history for previous 24 hours

 ConditionsComfort  
Time TempWeatherWind HumidityBarometerVisibility
3:00 AM
Sep 2
50 °FClear.7 mph82%29.73 "Hg15 mi
2:00 AM52 °FClear.9 mph82%29.73 "Hg15 mi
1:00 AM55 °FPassing clouds.3 mph72%29.75 "Hg15 mi
12:00 AM54 °FOvercast.7 mph82%29.75 "Hg15 mi
11:00 PM
Sep 1
52 °FPassing clouds.7 mph82%29.76 "Hg15 mi
10:00 PM54 °FPassing clouds.7 mph82%29.79 "Hg15 mi
9:00 PM54 °FPassing clouds.9 mph82%29.79 "Hg15 mi
8:00 PM59 °FPassing clouds.3 mph68%29.79 "Hg15 mi
7:00 PM63 °FPartly sunny.5 mph59%29.79 "Hg15 mi
6:00 PM66 °FPassing clouds.10 mph46%29.80 "Hg15 mi
5:00 PM68 °FPassing clouds.17 mph40%29.80 "Hg15 mi
4:00 PM68 °FScattered clouds.13 mph43%29.80 "Hg15 mi
3:00 PM66 °FPassing clouds.18 mph46%29.80 "Hg15 mi
2:00 PM68 °FPassing clouds.17 mph40%29.81 "Hg15 mi
1:00 PM66 °FPassing clouds.16 mph49%29.81 "Hg15 mi
12:00 PM66 °FPassing clouds.16 mph49%29.81 "Hg15 mi
11:00 AM64 °FPassing clouds.13 mph56%29.81 "Hg15 mi
10:00 AM61 °FPassing clouds.12 mph63%29.82 "Hg15 mi
9:00 AM55 °FPassing clouds.9 mph77%29.83 "Hg15 mi
8:00 AM50 °FPassing clouds.8 mph94%29.83 "Hg15 mi
7:00 AM46 °FSunny.5 mph93%29.83 "Hg15 mi
6:00 AM45 °FClear.3 mph93%29.81 "Hg15 mi
5:00 AM46 °FClear.6 mph100%29.82 "Hg15 mi
4:00 AM46 °FClear.5 mph100%29.79 "Hg15 mi
Weather by CustomWeather, © 2014

See weather overviewHow to use our weather pages